Location: ???????
(52.3000°N, 54.4667°E)
Time: 19:08:45
(UTC+00:00)

STARLINK-1080 - Pass Details

Date: 24 January 2020
Orbit: 348 x 351 km, 53.0° (Epoch: 21 February)

Event Time Altitude Azimuth Distance (km) Brightness Sun altitude
Rises 14:05:55 0° 263° (W) 2,164 8.6 -10.9°
Reaches altitude 10° 14:07:56 10° 264° (W) 1,322 7.0 -11.2°
Maximum altitude 14:10:52 81° 352° (N) 363 2.7 -11.7°
Enters shadow 14:12:36 22° 78° (ENE) 832 3.9 -11.9°
